This demonstration page uses our WeatherBlox Daily Observations layout. Learn more.

Left ArrowRight Arrow

Hourly Observations for September 12, 2022

Temp ( °F °C ) Dew Point ( °F °C ) Humidity (%) Winds ( mph kmh ) Pressure ( in mb ) Visibility ( mi km ) Precip ( " mm )
12:53 am 00:53 Clear 57 13.9 46 7.8 67 67 SSW 3 6 30.11 1020 10 16 0.00 0.00
1:53 am 01:53 Clear 55 12.8 46 7.8 72 72 SSW 3 6 30.09 1019 10 16 0.00 0.00
2:53 am 02:53 Clear 56 13.3 44 6.7 64 64 SSW 8 13 30.08 1019 10 16 0.00 0.00
3:53 am 03:53 Clear 56 13.3 44 6.7 64 64 SSW 6 9 30.07 1018 10 16 0.00 0.00
4:53 am 04:53 Clear 54 12.2 44 6.7 69 69 SSW 5 7 30.06 1018 10 16 0.00 0.00
5:53 am 05:53 Clear 53 11.7 44 6.7 71 71 SSW 5 7 30.06 1018 10 16 0.00 0.00
6:53 am 06:53 Clear 53 11.7 43 6.1 68 68 SSW 5 7 30.05 1018 10 16 0.00 0.00
7:53 am 07:53 Sunny 55 12.8 44 6.7 66 66 SSW 5 7 30.05 1018 10 16 0.00 0.00
8:53 am 08:53 Sunny 60 15.6 45 7.2 57 57 SSW 7 11 30.03 1017 10 16 0.00 0.00
9:53 am 09:53 Sunny 66 18.9 50 10 56 56 SW 9 15 30.03 1017 10 16 0.00 0.00
10:53 am 10:53 Sunny 72 22.2 54 12.2 53 53 SW 7 11 30.02 1017 10 16 0.00 0.00
11:53 am 11:53 Sunny 77 25 55 12.8 47 47 SW 6 9 30.01 1016 10 16 0.00 0.00
12:53 pm 12:53 Sunny 80 26.7 56 13.3 44 44 SSW 5 7 29.99 1016 10 16 0.00 0.00
1:53 pm 13:53 Sunny 82 27.8 52 11.1 35 35 SW 6 9 29.97 1015 10 16 0.00 0.00
2:53 pm 14:53 Sunny 83 28.3 51 10.6 33 33 SW 6 9 29.94 1014 10 16 0.00 0.00
3:53 pm 15:53 Sunny 83 28.3 51 10.6 33 33 W 7 11 29.91 1013 10 16 0.00 0.00
4:53 pm 16:53 Sunny 84 28.9 50 10 31 31 VRB 3 6 29.90 1013 10 16 0.00 0.00
5:53 pm 17:53 Sunny 83 28.3 50 10 32 32 SW 3 6 29.89 1012 10 16 0.00 0.00
6:53 pm 18:53 Sunny 82 27.8 52 11.1 35 35 SSE 5 7 29.88 1012 10 16 0.00 0.00
7:53 pm 19:53 Clear 75 23.9 54 12.2 48 48 ESE 3 6 29.88 1012 8 13 0.00 0.00
8:53 pm 20:53 Clear 68 20 55 12.8 63 63 SE 3 6 29.89 1012 10 16 0.00 0.00
9:53 pm 21:53 Clear 71 21.7 52 11.1 51 51 SE 6 9 29.88 1012 10 16 0.00 0.00
10:53 pm 22:53 Clear 71 21.7 51 10.6 49 49 SSE 6 9 29.87 1012 10 16 0.00 0.00
11:53 pm 23:53 Clear 68 20 51 10.6 55 55 SSE 6 9 29.87 1012 10 16 0.00 0.00

Powered by AerisWeather